ヒル彗星

C/2006 S5 ( Hill )

English version
Home page
Updated on January 20, 2013

---------------------------------------------------------------------

・ プロフィール

発見日 2006年9月28日
発見光度 18.6等
発見者 R. E. Hill (Catalina Sky Survey)

・ 写真集

・ 軌道要素

Epoch 2007 Dec. 6.0 TT = JDT 2454440.5
T 2007 Dec.  9.74954 TT                                 MPC
q   2.6304337            (2000.0)            P               Q
z  +0.0102681      Peri.  182.10848     -0.23580433     -0.95639777
 +/-0.0000005      Node   281.56370     +0.89416417     -0.14407191
e   0.9729905      Incl.   10.13140     +0.38061365     -0.25406022
From 1088 observations 2006 Sept. 14-2009 Jan. 4, mean residual 0".5.

・ 星図

・ 光度変化

        m1 = 8.5 + 5 logΔ + 10.0 log r

---------------------------------------------------------------------

軌道要素はM.P.E.C. 2013-A29に掲載されたものです。
星図は StellaNavigator Ver.2.0 for Windows (アストロアーツ 編著 / アスキー出版局刊) で作成したものです。
光度グラフはComet for Windowsで作成したものです。

---------------------------------------------------------------------

Copyright(C) Seiichi Yoshida (comet@aerith.net). All rights reserved.